This is the latest recevied weather packets stored in our database for station/object KQ7A. If no packets are shown the sender has not sent any weather packets the latest 10 day(s).
| Time | Temp. | Humidity | Pressure | Rain* | Wind** | Luminosity | Snow |
|---|---|---|---|---|---|---|---|
| 1788528703 | 15° C | 53% | 1012.8 hPa | 0 mm | - | 0 W/m² | - |
| 1788528402 | 15° C | 53% | 1012.6 hPa | 0 mm | - | 0 W/m² | - |
| 1788528098 | 15° C | 54% | 1012.5 hPa | 0 mm | - | 0 W/m² | - |
| 1788527797 | 15° C | 53% | 1012.8 hPa | 0 mm | - | 0 W/m² | - |
| 1788527494 | 15° C | 54% | 1012.5 hPa | 0 mm | - | 0 W/m² | - |
| 1788527192 | 15° C | 54% | 1012.3 hPa | 0 mm | - | 0 W/m² | - |
| 1788526887 | 15.56° C | 53% | 1012.4 hPa | 0 mm | - | 0 W/m² | - |
| 1788526584 | 15.56° C | 51% | 1012.2 hPa | 0 mm | - | 0 W/m² | - |
| 1788526279 | 15° C | 53% | 1012.3 hPa | 0 mm | - | 0 W/m² | - |
| 1788525974 | 15° C | 54% | 1012.6 hPa | 0 mm | - | 0 W/m² | - |
| 1788525670 | 15.56° C | 53% | 1012.5 hPa | 0 mm | - | 0 W/m² | - |
| 1788525369 | 15.56° C | 52% | 1012.4 hPa | 0 mm | - | 0 W/m² | - |
| 1788525065 | 15.56° C | 49% | 1012.6 hPa | 0 mm | - | 0 W/m² | - |
| 1788524760 | 15° C | 54% | 1012.8 hPa | 0 mm | - | 0 W/m² | - |
| 1788524455 | 15° C | 54% | 1012.5 hPa | 0 mm | - | 0 W/m² | - |
| 1788524150 | 15° C | 53% | 1012.3 hPa | 0 mm | - | 0 W/m² | - |
| 1788523846 | 15° C | 53% | 1012.3 hPa | 0 mm | - | 0 W/m² | - |
| 1788523542 | 15.56° C | 52% | 1012.4 hPa | 0 mm | - | 0 W/m² | - |
| 1788523237 | 15.56° C | 53% | 1012.3 hPa | 0 mm | - | 0 W/m² | - |
| 1788522932 | 15° C | 53% | 1012.5 hPa | 0 mm | - | 0 W/m² | - |
| 1788522627 | 15° C | 52% | 1012.2 hPa | 0 mm | - | 0 W/m² | - |
| 1788522322 | 15.56° C | 53% | 1012.2 hPa | 0 mm | - | 0 W/m² | - |
| 1788522016 | 15.56° C | 50% | 1012.1 hPa | 0 mm | - | 0 W/m² | - |
| 1788521716 | 15.56° C | 53% | 1012.2 hPa | 0 mm | - | 0 W/m² | - |
| 1788521410 | 16.11° C | 49% | 1012.1 hPa | 0 mm | - | 0 W/m² | - |
* Rain latest hour (hover to see other rain measurements)
** Current wind speed in m/s (hover to see current wind gust speed)